Location: Bethera
(33.2010°N, 79.7880°W)
Time: 06:38:55
(UTC-04:00)

Amateur Radio Satellites - All Passes

Search period start: 01 April 2015 06:08
Search period end: 02 April 2015 06:08
Location: Bethera, 33.2010°N, 79.7880°W

Satellite Date Start Highest point End Downlink Frequencies (MHz)
Time Altitude Azimuth
PRISM 01 Apr 06:14:57 06:17:24 16° 69° (ENE) 06:20:03 437.425
MOZHAYETS 4 01 Apr 06:22:05 06:25:31 20° 267° (W) 06:28:49
CUTE-I 01 Apr 06:22:50 06:24:59 13° 90° (E) 06:27:29 437.470
Cubesat XI-IV 01 Apr 06:23:44 06:26:06 13° 91° (E) 06:28:48 437.490
M-CUBED/EXP-1 PRIME 01 Apr 06:24:24 06:28:04 36° 259° (W) 06:32:03 437.505
VERMONT LUNAR 01 Apr 06:32:49 06:35:37 24° 352° (N) 06:38:26 437.305
CUBESAT XI-V 01 Apr 06:39:08 06:43:31 41° 74° (ENE) 06:47:57 437.345
STRAND 1 01 Apr 06:59:47 07:04:29 38° 72° (ENE) 07:09:15 437.568
ISS 01 Apr 07:03:04 07:03:42 10° 233° (SW) 07:04:11 145.825
CUSAT 1 01 Apr 07:07:43 07:10:33 15° 76° (ENE) 07:14:08 437.405
AO-7 01 Apr 07:32:38 07:37:55 18° 302° (WNW) 07:42:47 29.400- 29.500
JAS-2 01 Apr 07:35:35 07:38:55 13° 301° (WNW) 07:41:39 435.910
PHONESAT 2.4 01 Apr 07:38:20 07:41:19 25° 355° (N) 07:44:18 2401.200-2431.200
PRISM 01 Apr 07:48:47 07:52:39 34° 262° (W) 07:56:29 437.425
GONETS M04 01 Apr 07:56:19 08:04:56 57° 268° (W) 08:13:28
CUTE-I 01 Apr 08:00:18 08:05:33 61° 286° (WNW) 08:10:46 437.470
Cubesat XI-IV 01 Apr 08:01:26 08:06:40 59° 286° (WNW) 08:11:52 437.490
VERMONT LUNAR 01 Apr 08:11:02 08:13:54 26° 9° (N) 08:16:47 437.305
DANDE 01 Apr 08:13:56 08:18:27 51° 81° (E) 08:24:32 436.750
CUBESAT XI-V 01 Apr 08:18:14 08:21:11 16° 268° (W) 08:23:55 437.345
STRAND 1 01 Apr 08:39:59 08:43:50 20° 266° (W) 08:47:30 437.568
CUSAT 1 01 Apr 08:48:25 08:53:17 54° 263° (W) 08:59:41 437.405
CUTE 1.7 + AOD 2 01 Apr 08:55:47 08:56:31 11° 90° (E) 08:57:34 437.475
BEESAT 3 01 Apr 08:59:45 09:02:24 17° 110° (ESE) 09:05:12 437.485
PHONESAT 2.4 01 Apr 09:17:05 09:20:15 30° 12° (NNE) 09:23:25 2401.200-2431.200
SEEDS 01 Apr 09:18:36 09:21:24 17° 93° (E) 09:24:20 437.485
COMPASS 1 01 Apr 09:35:52 09:39:12 23° 95° (E) 09:42:35 437.405
BRITE-PL 01 Apr 09:45:14 09:49:32 87° 282° (WNW) 09:54:07 437.365/2234.400
VERMONT LUNAR 01 Apr 09:48:31 09:51:52 82° 25° (NNE) 09:55:14 437.305
DOVE 4 01 Apr 09:50:04 09:54:19 42° 99° (E) 09:58:49 437.250
HO-68 01 Apr 09:54:40 10:01:47 63° 102° (ESE) 10:08:54 435.675
Oscar 11 01 Apr 09:55:32 09:57:54 15° 92° (E) 10:00:28 145.826/435.025
AIST 2 01 Apr 09:55:55 09:59:03 21° 111° (ESE) 10:02:20 435.215
DANDE 01 Apr 09:58:58 10:01:51 14° 264° (W) 10:04:46 436.750
TIGRISAT 01 Apr 10:02:28 10:02:54 10° 67° (ENE) 10:03:37 435.000
BEESAT 2 01 Apr 10:02:42 10:06:48 86° 112° (ESE) 10:10:58 435.950
DELFI C3 01 Apr 10:03:12 10:04:53 13° 91° (E) 10:06:47 145.870
FUNcube-1 01 Apr 10:12:59 10:14:28 12° 91° (E) 10:16:16 145.935
CANX-2 01 Apr 10:15:04 10:19:22 66° 283° (WNW) 10:23:37 2200.000
GOMX 1 01 Apr 10:16:06 10:20:26 60° 284° (WNW) 10:25:02 467.674
UWE-3 01 Apr 10:23:55 10:27:19 22° 95° (E) 10:30:54 435.000/436.395/437.385
ZACube-1 01 Apr 10:25:49 10:28:46 18° 93° (E) 10:31:56 437.345
CUTE 1.7 + AOD 2 01 Apr 10:28:37 10:32:48 50° 285° (WNW) 10:36:58 437.475
ANTELSAT 01 Apr 10:31:15 10:34:41 25° 71° (ENE) 10:38:14 437.575/2403.000
CUBEBUG 2 01 Apr 10:34:58 10:39:07 36° 98° (E) 10:43:24 437.445
BEESAT 3 01 Apr 10:36:33 10:40:14 31° 304° (NW) 10:43:56 437.485
POPSAT HIP 1 01 Apr 10:36:39 10:38:37 14° 69° (ENE) 10:40:49 437.405
AAUSAT CUBESAT 2 01 Apr 10:40:58 10:45:10 62° 284° (WNW) 10:49:19 437.432
CINEMA 3 01 Apr 10:43:39 10:48:12 90° 49° (NE) 10:52:56 145.822/145.860
NANOSAT C BR1 01 Apr 10:45:09 10:47:50 17° 70° (ENE) 10:50:40 145.865
POLYITAN 1 01 Apr 10:51:50 10:54:57 21° 71° (ENE) 10:58:12 437.675
HUMSAT D 01 Apr 10:51:59 10:54:37 16° 93° (E) 10:57:25 437.325/437.525
SEEDS 01 Apr 10:53:29 10:57:17 30° 287° (WNW) 11:01:00 437.485
PHONESAT 2.4 01 Apr 10:55:16 10:58:48 77° 209° (SSW) 11:02:20 2401.200-2431.200
UKube-1 01 Apr 11:02:00 11:05:46 30° 97° (E) 11:09:36 .
50 SAT 01 Apr 11:02:32 11:04:11 12° 92° (E) 11:06:04 437.505
COMPASS 1 01 Apr 11:11:24 11:14:50 23° 288° (WNW) 11:18:08 437.405
DX 1 01 Apr 11:16:10 11:20:21 48° 100° (E) 11:24:33 434.975-435.025
ESTCUBE 1 01 Apr 11:22:18 11:22:42 10° 90° (E) 11:23:25 437.505/2401.250
DUCHIFAT 1 01 Apr 11:26:01 11:30:06 53° 75° (ENE) 11:34:12 145.980
QB50P1 01 Apr 11:26:02 11:30:08 55° 75° (ENE) 11:34:17 145.935-145.965
UNISAT 6 01 Apr 11:26:15 11:30:29 69° 258° (WSW) 11:34:48 437.425
VERMONT LUNAR 01 Apr 11:27:16 11:29:16 15° 218° (SW) 11:31:11 437.305
DOVE 4 01 Apr 11:29:17 11:31:51 15° 289° (WNW) 11:34:17 437.250
Oscar 11 01 Apr 11:30:13 11:34:16 37° 286° (WNW) 11:38:16 145.826/435.025
AIST 2 01 Apr 11:33:46 11:37:30 29° 305° (NW) 11:41:14 435.215
TIGRISAT 01 Apr 11:35:05 11:39:14 54° 260° (W) 11:43:28 435.000
DELFI C3 01 Apr 11:36:27 11:40:16 38° 286° (WNW) 11:44:02 145.870
QB50P2 01 Apr 11:41:54 11:46:07 90° 246° (WSW) 11:50:21 145.880/145.840
HO-68 01 Apr 11:43:42 11:49:01 22° 297° (WNW) 11:54:03 435.675
FUNcube-1 01 Apr 11:46:49 11:51:07 49° 285° (WNW) 11:55:28 145.935
BUGSAT 1 01 Apr 11:51:59 11:56:09 82° 78° (ENE) 12:00:17 437.445
UWE-3 01 Apr 12:00:00 12:03:51 28° 287° (WNW) 12:07:43 435.000/436.395/437.385
CUBEBUG 1 01 Apr 12:00:02 12:03:39 26° 96° (E) 12:07:21 437.445
ZACube-1 01 Apr 12:01:13 12:05:14 33° 286° (WNW) 12:09:16 437.345
ANTELSAT 01 Apr 12:08:07 12:11:28 21° 266° (W) 12:14:44 437.575/2403.000
VELOX 1 01 Apr 12:08:55 12:13:21 84° 102° (ESE) 12:17:45 145.980
POPSAT HIP 1 01 Apr 12:10:15 12:14:13 40° 262° (W) 12:18:11 437.405
CUBEBUG 2 01 Apr 12:12:32 12:15:36 18° 289° (WNW) 12:18:33 437.445
AISAT 01 Apr 12:15:02 12:19:27 79° 283° (WNW) 12:23:51 437.250
NANOSAT C BR1 01 Apr 12:19:44 12:23:29 30° 263° (W) 12:27:12 145.865
HUMSAT D 01 Apr 12:26:37 12:30:29 33° 287° (WNW) 12:34:20 437.325/437.525
POLYITAN 1 01 Apr 12:27:17 12:30:48 24° 265° (W) 12:34:12 437.675
PHONESAT 2.4 01 Apr 12:35:24 12:36:46 12° 219° (SW) 12:38:02 2401.200-2431.200
50 SAT 01 Apr 12:35:31 12:39:17 37° 286° (WNW) 12:43:02 437.505
UKube-1 01 Apr 12:38:40 12:41:45 19° 290° (WNW) 12:44:41 .
YUBILEINY 01 Apr 12:43:54 12:49:34 20° 84° (E) 12:55:44 435.215
JUGNU 01 Apr 12:54:06 12:57:46 17° 169° (S) 13:01:30 437.505
DX 1 01 Apr 12:54:25 12:56:15 12° 292° (WNW) 12:57:50 434.975-435.025
ESTCUBE 1 01 Apr 12:55:35 13:00:00 56° 285° (WNW) 13:04:23 437.505/2401.250
TISAT 1 01 Apr 13:09:45 13:13:34 34° 98° (E) 13:17:25 437.305
PCSat 01 Apr 13:25:10 13:28:42 19° 107° (ESE) 13:32:28 145.827
SPROUT 01 Apr 13:31:53 13:36:11 83° 101° (E) 13:40:28 437.525
CUBEBUG 1 01 Apr 13:36:39 13:39:55 21° 289° (WNW) 13:43:04 437.445
Oscar 19 01 Apr 13:39:06 13:43:55 45° 73° (ENE) 13:48:49 437.125/150
SWISSCUBE 01 Apr 13:51:27 13:54:14 16° 92° (E) 13:57:15 437.505
BEESAT 01 Apr 13:53:53 13:56:35 15° 92° (E) 13:59:31 436.000
SRMSAT 01 Apr 14:00:11 14:03:12 14° 166° (SSE) 14:06:19 437.500
Gurwin Techsat 1B 01 Apr 14:21:23 14:25:50 29° 71° (ENE) 14:30:24 435.225
O/OREOS (USA 219) 01 Apr 14:31:20 14:35:52 74° 252° (WSW) 14:40:21 437.305
YUBILEINY 01 Apr 14:36:54 14:45:40 70° 279° (W) 14:54:30 435.215
ITUPSAT 1 01 Apr 14:41:21 14:46:02 53° 100° (E) 14:50:41 437.325
JUGNU 01 Apr 14:41:40 14:46:11 22° 178° (S) 14:50:42 437.505
AO-7 01 Apr 14:44:07 14:48:06 15° 56° (ENE) 14:52:36 29.400- 29.500
TISAT 1 01 Apr 14:46:33 14:49:08 16° 290° (WNW) 14:51:32 437.305
ITAMSAT 1 01 Apr 14:51:34 14:56:46 74° 76° (ENE) 15:02:00 435.822/435.867
PCSat 01 Apr 15:06:36 15:11:48 47° 300° (WNW) 15:17:02 145.827
Oscar 19 01 Apr 15:20:12 15:23:33 17° 268° (W) 15:26:40 437.125/150
SWISSCUBE 01 Apr 15:27:50 15:32:20 41° 287° (WNW) 15:36:46 437.505
BEESAT 01 Apr 15:30:10 15:34:41 43° 287° (WNW) 15:39:09 436.000
AIST 1 01 Apr 15:40:52 15:45:09 70° 83° (E) 15:49:23
SRMSAT 01 Apr 15:47:21 15:51:46 21° 176° (S) 15:56:12 437.500
HORYU 2 01 Apr 15:51:40 15:55:56 49° 74° (ENE) 16:00:14 437.375
JAS-2 01 Apr 15:54:00 15:59:59 33° 67° (ENE) 16:06:37 435.910
Gurwin Techsat 1B 01 Apr 16:01:11 16:05:46 29° 264° (W) 16:10:17 435.225
KKS-1 01 Apr 16:20:12 16:24:37 66° 284° (WNW) 16:29:02 437.445
ITUPSAT 1 01 Apr 16:21:04 16:23:31 14° 293° (WNW) 16:25:43 437.325
JUGNU 01 Apr 16:30:28 16:34:37 19° 188° (S) 16:38:43 437.505
AO-7 01 Apr 16:31:34 16:39:52 82° 72° (ENE) 16:48:11 29.400- 29.500
YUBILEINY 01 Apr 16:43:23 16:44:31 10° 300° (WNW) 16:44:44 435.215
STARS 01 Apr 16:44:10 16:48:29 55° 285° (WNW) 16:52:48 437.465
MOZHAYETS 4 01 Apr 16:46:39 16:46:59 10° 89° (E) 16:47:42
SO-50 01 Apr 17:15:12 17:16:44 12° 108° (ESE) 17:18:34 436.795
HORYU 2 01 Apr 17:31:21 17:32:56 11° 269° (W) 17:34:13 437.375
SRMSAT 01 Apr 17:35:59 17:40:21 21° 186° (S) 17:44:42 437.500
JAS-2 01 Apr 17:38:19 17:44:47 43° 264° (W) 17:51:52 435.910
CUTE-I 01 Apr 17:40:35 17:43:32 16° 67° (ENE) 17:46:44 437.470
Cubesat XI-IV 01 Apr 17:41:40 17:44:46 16° 67° (ENE) 17:48:07 437.490
AUBIESAT-1 01 Apr 17:44:46 17:46:18 12° 93° (E) 17:48:07 437.475
RS-15 01 Apr 17:53:45 18:02:49 33° 107° (ESE) 18:12:16 29.354- 29.394
M-CUBED/EXP-1 PRIME 01 Apr 18:10:12 18:14:15 28° 99° (E) 18:18:15 437.505
MOZHAYETS 4 01 Apr 18:20:06 18:24:41 59° 284° (WNW) 18:29:13
JUGNU 01 Apr 18:21:49 18:23:01 10° 197° (SSW) 18:24:02 437.505
BEESAT 2 01 Apr 18:27:21 18:29:49 16° 50° (NE) 18:32:24 435.950
AO-7 01 Apr 18:28:26 18:33:37 17° 269° (W) 18:38:13 29.400- 29.500
CUBESAT XI-V 01 Apr 18:41:44 18:44:01 14° 91° (E) 18:46:33 437.345
SO-50 01 Apr 18:52:17 18:56:48 57° 301° (WNW) 19:01:29 436.795
GONETS M04 01 Apr 18:56:16 19:03:41 34° 88° (E) 19:11:22
BEESAT 3 01 Apr 18:59:09 19:03:00 39° 57° (ENE) 19:06:49 437.485
STRAND 1 01 Apr 19:15:33 19:18:51 18° 93° (E) 19:22:22 437.568
AUBIESAT-1 01 Apr 19:16:50 19:21:34 59° 289° (WNW) 19:26:05 437.475
CUTE-I 01 Apr 19:17:56 19:23:12 56° 259° (W) 19:28:28 437.470
Cubesat XI-IV 01 Apr 19:19:14 19:24:29 54° 260° (W) 19:29:44 437.490
SRMSAT 01 Apr 19:26:08 19:28:54 13° 195° (SSW) 19:31:34 437.500
PRISM 01 Apr 19:35:22 19:39:19 43° 99° (E) 19:43:15 437.425
M-CUBED/EXP-1 PRIME 01 Apr 19:44:58 19:49:02 27° 294° (WNW) 19:52:54 437.505
AIST 2 01 Apr 19:58:57 20:03:06 50° 59° (ENE) 20:07:08 435.215
RS-15 01 Apr 20:04:00 20:14:42 58° 305° (NW) 20:25:31 29.354- 29.394
BEESAT 2 01 Apr 20:04:19 20:08:11 39° 246° (WSW) 20:11:57 435.950
CUBESAT XI-V 01 Apr 20:17:21 20:21:45 43° 286° (WNW) 20:26:05 437.345
HO-68 01 Apr 20:19:18 20:25:16 31° 66° (ENE) 20:31:25 435.675
ISS 01 Apr 20:26:10 20:27:20 12° 127° (SE) 20:28:38 145.825
BEESAT 3 01 Apr 20:38:39 20:40:45 13° 250° (WSW) 20:42:36 437.485
BRITE-PL 01 Apr 20:52:06 20:56:47 67° 77° (ENE) 21:01:08 437.365/2234.400
GONETS M04 01 Apr 20:52:12 21:00:22 43° 284° (WNW) 21:08:31
DOVE 4 01 Apr 20:52:42 20:56:12 25° 73° (ENE) 20:59:41 437.250
STRAND 1 01 Apr 20:53:29 20:58:17 42° 288° (WNW) 21:03:02 437.568
CANX-2 01 Apr 21:03:47 21:07:51 49° 75° (ENE) 21:12:00 2200.000
PRISM 01 Apr 21:12:39 21:14:27 12° 292° (WNW) 21:16:03 437.425
CUTE 1.7 + AOD 2 01 Apr 21:17:02 21:21:13 65° 77° (ENE) 21:25:27 437.475
GOMX 1 01 Apr 21:20:22 21:24:52 89° 79° (ENE) 21:29:08 467.674
DANDE 01 Apr 21:25:22 21:28:28 79° 280° (W) 21:31:08 436.750
AAUSAT CUBESAT 2 01 Apr 21:27:36 21:31:36 48° 75° (ENE) 21:35:40 437.432
CUBEBUG 2 01 Apr 21:30:44 21:33:21 17° 71° (ENE) 21:36:08 437.445
AIST 2 01 Apr 21:40:02 21:41:17 11° 251° (WSW) 21:42:15 435.215
SEEDS 01 Apr 21:40:46 21:44:58 77° 259° (WSW) 21:49:13 437.485
CINEMA 3 01 Apr 21:41:53 21:45:54 47° 75° (ENE) 21:49:54 145.822/145.860
UKube-1 01 Apr 21:54:02 21:56:36 16° 69° (ENE) 21:59:21 .
CUSAT 1 01 Apr 21:57:40 21:59:06 13° 284° (WNW) 22:00:22 437.405
COMPASS 1 01 Apr 21:57:40 22:01:47 58° 260° (W) 22:05:56 437.405
ISS 01 Apr 22:00:19 22:03:27 46° 319° (NW) 22:06:36 145.825
HO-68 01 Apr 22:06:01 22:12:47 44° 261° (W) 22:19:33 435.675
DX 1 01 Apr 22:08:12 22:11:43 25° 71° (ENE) 22:15:20 434.975-435.025
DELFI C3 01 Apr 22:19:32 22:23:34 71° 77° (ENE) 22:27:39 145.870
Oscar 11 01 Apr 22:20:17 22:24:35 85° 258° (WSW) 22:28:56 145.826/435.025
RS-15 01 Apr 22:24:00 22:30:24 16° 333° (NNW) 22:36:25 29.354- 29.394
DOVE 4 01 Apr 22:30:43 22:34:00 20° 265° (W) 22:37:03 437.250
FUNcube-1 01 Apr 22:38:28 22:42:35 75° 77° (ENE) 22:46:45 145.935
CANX-2 01 Apr 22:43:17 22:44:09 10° 270° (W) 22:44:43 2200.000
UWE-3 01 Apr 22:52:47 22:56:49 53° 260° (W) 23:00:54 435.000/436.395/437.385
ZACube-1 01 Apr 22:52:50 22:56:58 69° 260° (W) 23:01:06 437.345
CUBEBUG 1 01 Apr 22:53:33 22:55:49 14° 69° (ENE) 22:58:18 437.445
VELOX 1 01 Apr 23:02:29 23:06:41 43° 74° (ENE) 23:10:54 145.980
CUBEBUG 2 01 Apr 23:06:14 23:09:53 29° 264° (W) 23:13:30 437.445
AAUSAT CUBESAT 2 01 Apr 23:06:52 23:07:35 10° 270° (W) 23:08:00 437.432
AISAT 01 Apr 23:08:42 23:13:01 53° 75° (ENE) 23:17:21 437.250
HUMSAT D 01 Apr 23:13:56 23:18:01 83° 258° (WSW) 23:22:09 437.325/437.525
50 SAT 01 Apr 23:17:01 23:20:53 67° 77° (ENE) 23:24:47 437.505
DUCHIFAT 1 01 Apr 23:17:09 23:18:40 12° 91° (E) 23:20:27 145.980
QB50P1 01 Apr 23:17:22 23:19:05 13° 92° (E) 23:21:03 145.935-145.965
UNISAT 6 01 Apr 23:22:22 23:26:35 34° 97° (E) 23:30:53 437.425
UKube-1 01 Apr 23:28:30 23:32:30 36° 262° (W) 23:36:29 .
TIGRISAT 01 Apr 23:30:42 23:35:04 41° 98° (E) 23:39:31 435.000
QB50P2 01 Apr 23:32:22 23:35:28 20° 94° (E) 23:38:42 145.880/145.840
BUGSAT 1 01 Apr 23:39:52 23:42:13 15° 93° (E) 23:44:46 437.445
DX 1 01 Apr 23:44:27 23:47:56 22° 265° (W) 23:51:19 434.975-435.025
ESTCUBE 1 01 Apr 23:50:41 23:55:14 79° 77° (ENE) 23:59:48 437.505/2401.250
PCSat 01 Apr 23:58:30 00:03:49 56° 61° (ENE) 00:09:08 145.827
TISAT 1 01 Apr 23:59:16 00:01:44 16° 70° (ENE) 00:04:22 437.305
POPSAT HIP 1 01 Apr 23:59:31 00:03:33 42° 99° (E) 00:07:36 437.405
ANTELSAT 02 Apr 00:02:48 00:07:28 80° 282° (WNW) 00:12:09 437.575/2403.000
NANOSAT C BR1 02 Apr 00:08:25 00:12:34 55° 100° (E) 00:16:43 145.865
POLYITAN 1 02 Apr 00:16:05 00:20:20 72° 101° (ESE) 00:24:35 437.675
SPROUT 02 Apr 00:22:06 00:26:00 36° 74° (ENE) 00:29:57 437.525
CUBEBUG 1 02 Apr 00:27:43 00:31:53 41° 261° (W) 00:36:03 437.445
VELOX 1 02 Apr 00:41:17 00:43:31 13° 268° (W) 00:45:30 145.980
RS-15 02 Apr 00:48:31 00:49:52 10° 10° (N) 00:51:33 29.354- 29.394
AISAT 02 Apr 00:49:01 00:50:01 10° 270° (W) 00:50:40 437.250
DUCHIFAT 1 02 Apr 00:50:46 00:54:46 42° 286° (WNW) 00:58:46 145.980
QB50P1 02 Apr 00:51:12 00:55:12 41° 286° (WNW) 00:59:11 145.935-145.965
YUBILEINY 02 Apr 00:52:37 01:01:02 49° 78° (ENE) 01:09:27 435.215
SWISSCUBE 02 Apr 00:55:23 00:57:10 12° 67° (ENE) 00:59:14 437.505
BEESAT 02 Apr 00:57:51 00:59:27 12° 67° (ENE) 01:01:20 436.000
UNISAT 6 02 Apr 00:59:48 01:03:10 19° 290° (WNW) 01:06:24 437.425
QB50P2 02 Apr 01:07:48 01:11:23 26° 288° (WNW) 01:14:53 145.880/145.840
TIGRISAT 02 Apr 01:08:37 01:11:32 16° 291° (WNW) 01:14:16 435.000
BUGSAT 1 02 Apr 01:14:15 01:17:49 30° 287° (WNW) 01:21:19 437.445
TISAT 1 02 Apr 01:33:26 01:37:18 34° 263° (W) 01:41:06 437.305
POPSAT HIP 1 02 Apr 01:37:04 01:39:07 13° 291° (WNW) 01:40:57 437.405
PCSat 02 Apr 01:43:37 01:46:50 15° 254° (WSW) 01:49:45 145.827
ITUPSAT 1 02 Apr 01:44:08 01:48:32 38° 73° (ENE) 01:53:01 437.325
Oscar 19 02 Apr 01:55:30 01:59:27 23° 94° (E) 02:03:34 437.125/150
SPROUT 02 Apr 01:59:43 02:02:16 15° 268° (W) 02:04:36 437.525
SWISSCUBE 02 Apr 02:29:51 02:34:36 59° 260° (W) 02:39:21 437.505
VERMONT LUNAR 02 Apr 02:30:15 02:31:36 12° 142° (SE) 02:33:05 437.305
BEESAT 02 Apr 02:32:06 02:36:50 61° 259° (W) 02:41:36 436.000
Gurwin Techsat 1B 02 Apr 02:42:44 02:45:45 16° 91° (E) 02:49:03 435.225
YUBILEINY 02 Apr 02:50:07 02:57:32 30° 274° (W) 03:04:39 435.215
RS-15 02 Apr 02:58:15 03:07:52 31° 43° (NE) 03:18:09 29.354- 29.394
O/OREOS (USA 219) 02 Apr 03:01:06 03:04:30 21° 102° (ESE) 03:08:02 437.305
ITAMSAT 1 02 Apr 03:09:04 03:13:49 37° 98° (E) 03:18:35 435.822/435.867
KKS-1 02 Apr 03:14:03 03:18:26 65° 76° (ENE) 03:22:50 437.445
ITUPSAT 1 02 Apr 03:23:16 03:26:37 18° 267° (W) 03:29:46 437.325
SO-50 02 Apr 03:27:47 03:32:28 41° 56° (ENE) 03:37:06 436.795
Oscar 19 02 Apr 03:34:12 03:38:53 34° 288° (WNW) 03:43:31 437.125/150
STARS 02 Apr 03:36:43 03:41:04 75° 76° (ENE) 03:45:28 437.465
PHONESAT 2.4 02 Apr 03:42:33 03:45:10 20° 144° (SE) 03:47:51 2401.200-2431.200
HORYU 2 02 Apr 03:48:51 03:51:01 14° 92° (E) 03:53:28 437.375
VERMONT LUNAR 02 Apr 04:05:37 04:08:58 84° 149° (SSE) 04:12:19 437.305
AIST 1 02 Apr 04:05:44 04:09:59 51° 94° (E) 04:14:16
Gurwin Techsat 1B 02 Apr 04:20:57 04:26:05 50° 287° (WNW) 04:31:11 435.225
ISS 02 Apr 04:31:19 04:34:01 24° 36° (NE) 04:36:44 145.825
AO-7 02 Apr 04:38:29 04:45:50 35° 98° (E) 04:53:20 29.400- 29.500
O/OREOS (USA 219) 02 Apr 04:39:46 04:43:47 29° 296° (WNW) 04:47:45 437.305
ITAMSAT 1 02 Apr 04:49:10 04:53:07 22° 291° (WNW) 04:56:54 435.822/435.867
JAS-2 02 Apr 04:52:59 04:59:56 41° 95° (E) 05:06:16 435.910
M-CUBED/EXP-1 PRIME 02 Apr 04:55:41 04:58:23 18° 63° (ENE) 05:01:21 437.505
SO-50 02 Apr 05:09:12 05:12:45 19° 250° (WSW) 05:16:05 436.795
RS-15 02 Apr 05:09:55 05:21:32 76° 245° (WSW) 05:33:34 29.354- 29.394
GONETS M04 02 Apr 05:14:13 05:17:06 12° 62° (ENE) 05:20:47
MOZHAYETS 4 02 Apr 05:17:29 05:22:05 78° 78° (ENE) 05:26:44
PHONESAT 2.4 02 Apr 05:19:46 05:23:17 67° 336° (NNW) 05:26:48 2401.200-2431.200
HORYU 2 02 Apr 05:23:39 05:27:56 43° 286° (WNW) 05:32:11 437.375
VERMONT LUNAR 02 Apr 05:43:57 05:46:53 27° 349° (N) 05:49:48 437.305
AIST 1 02 Apr 05:47:04 05:48:03 10° 289° (WNW) 05:48:43
